Location: *
(51.1248°S, 108.4023°W)
Time: 11:38:18
(UTC+00:00)

USA 281 - Pass Details

Date: 31 October 2021
Orbit: 1078 x 1081 km, 106.0° (Epoch: 25 November)

Event Time Altitude Azimuth Distance (km) Brightness Sun altitude
Exits shadow 04:31:12 - 345° (NNW) 3,209 5.4 -17.4°
Reaches altitude 10° 04:32:06 10° 340° (NNW) 2,927 5.2 -17.5°
Maximum altitude 04:37:41 29° 282° (WNW) 1,893 4.7 -18.0°
Drops below altitude 10° 04:43:20 10° 224° (SW) 2,956 6.7 -18.5°
Sets 04:46:17 0° 212° (SSW) 3,920 7.9 -18.7°
